GW7743 Weather Reports


time (UTC)temp
C
wind
direction
speed
KPH
gust
KPH
rain 1hr
cm
rain 24hr
cm
rain mn
cm
humidity
%
barometer
mb
20260906220517 33 160 0.0 1.6 0.00 0.00 0.00 32 1016.8
20260906220012 34 168 0.0 0.0 0.00 0.00 0.00 30 1017.0
20260906215511 34 139 1.6 1.6 0.00 0.00 0.00 31 1017.1
20260906215009 33 153 1.6 1.6 0.00 0.00 0.00 32 1017.1
20260906214508 33 173 0.0 1.6 0.00 0.00 0.00 32 1017.1
20260906214003 33 162 1.6 1.6 0.00 0.00 0.00 32 1017.5
20260906213457 33 15 3.2 4.8 0.00 0.00 0.00 32 1017.6
20260906212956 33 165 1.6 1.6 0.00 0.00 0.00 34 1017.8
20260906212450 32 181 1.6 1.6 0.00 0.00 0.00 34 1017.8
20260906211945 33 169 1.6 3.2 0.00 0.00 0.00 33 1017.7
20260906211440 33 170 0.0 0.0 0.00 0.00 0.00 33 1017.9
20260906210935 33 134 1.6 1.6 0.00 0.00 0.00 32 1017.9
20260906210431 32 162 0.0 1.6 0.00 0.00 0.00 36 1018.0
20260906205924 33 156 1.6 1.6 0.00 0.00 0.00 35 1018.0
20260906205421 33 163 1.6 1.6 0.00 0.00 0.00 33 1018.2
20260906204917 33 177 1.6 1.6 0.00 0.00 0.00 34 1018.0
20260906204415 32 170 0.0 0.0 0.00 0.00 0.00 36 1018.3
20260906203915 32 132 1.6 1.6 0.00 0.00 0.00 35 1018.5
20260906203410 32 139 1.6 3.2 0.00 0.00 0.00 34 1018.6
20260906202908 33 169 0.0 0.0 0.00 0.00 0.00 37 1018.7
20260906202408 31 146 1.6 1.6 0.00 0.00 0.00 36 1018.6
20260906201907 32 147 1.6 1.6 0.00 0.00 0.00 39 1018.6
20260906201402 31 167 0.0 1.6 0.00 0.00 0.00 40 1018.7
20260906200858 31 116 1.6 1.6 0.00 0.00 0.00 36 1019.1
20260906200354 31 167 1.6 3.2 0.00 0.00 0.00 37 1018.7
20260906195854 31 157 0.0 0.0 0.00 0.00 0.00 35 1019.1
20260906195350 31 199 3.2 8.0 0.00 0.00 0.00 35 1019.2
20260906194846 32 146 1.6 3.2 0.00 0.00 0.00 35 1019.1
20260906194342 30 170 1.6 1.6 0.00 0.00 0.00 36 1019.1
20260906193836 31 170 3.2 4.8 0.00 0.00 0.00 34 1019.1
20260906193332 30 157 3.2 3.2 0.00 0.00 0.00 32 1019.3
20260906192827 31 166 4.8 4.8 0.00 0.00 0.00 32 1019.6
20260906192327 32 185 1.6 3.2 0.00 0.00 0.00 34 1019.4
20260906191827 31 151 0.0 0.0 0.00 0.00 0.00 38 1019.6
20260906191327 31 165 0.0 0.0 0.00 0.00 0.00 40 1019.7
20260906190821 30 168 0.0 0.0 0.00 0.00 0.00 39 1019.4
20260906190321 30 155 1.6 1.6 0.00 0.00 0.00 39 1019.7
20260906185820 31 192 4.8 8.0 0.00 0.00 0.00 36 1019.8
20260906185320 31 142 0.0 1.6 0.00 0.00 0.00 36 1019.9
20260906184814 31 53 1.6 3.2 0.00 0.00 0.00 36 1020.0
20260906184309 31 154 1.6 1.6 0.00 0.00 0.00 35 1020.1
20260906183805 31 179 1.6 3.2 0.00 0.00 0.00 34 1020.4
20260906183301 30 180 1.6 1.6 0.00 0.00 0.00 36 1020.5
20260906182801 30 149 0.0 1.6 0.00 0.00 0.00 37 1020.1
20260906182257 28 169 1.6 1.6 0.00 0.00 0.00 38 1020.5
20260906181752 30 124 4.8 4.8 0.00 0.00 0.00 38 1020.6
20260906181249 30 165 0.0 1.6 0.00 0.00 0.00 38 1020.7
20260906180748 29 155 1.6 1.6 0.00 0.00 0.00 39 1020.7
20260906180244 29 155 0.0 0.0 0.00 0.00 0.00 42 1020.7
20260906175741 30 171 0.0 1.6 0.00 0.00 0.00 41 1021.1
20260906175237 28 157 0.0 1.6 0.00 0.00 0.00 44 1021.2
20260906174735 28 100 3.2 3.2 0.00 0.00 0.00 42 1021.2
20260906174235 28 155 0.0 0.0 0.00 0.00 0.00 45 1021.2
20260906173730 28 220 3.2 3.2 0.00 0.00 0.00 42 1021.6
20260906173226 28 167 1.6 1.6 0.00 0.00 0.00 43 1021.6
20260906172725 28 155 1.6 1.6 0.00 0.00 0.00 45 1021.7
20260906172220 28 147 0.0 1.6 0.00 0.00 0.00 45 1021.7
20260906171721 27 158 0.0 0.0 0.00 0.00 0.00 48 1021.7
20260906171216 28 151 0.0 0.0 0.00 0.00 0.00 44 1021.8
20260906170712 28 140 1.6 1.6 0.00 0.00 0.00 43 1022.1
20260906170212 28 160 0.0 1.6 0.00 0.00 0.00 47 1022.1
20260906165708 27 166 1.6 1.6 0.00 0.00 0.00 45 1022.4
20260906165203 27 158 0.0 0.0 0.00 0.00 0.00 48 1022.4
20260906164702 27 167 1.6 1.6 0.00 0.00 0.00 47 1022.3
20260906164158 28 137 0.0 0.0 0.00 0.00 0.00 46 1022.4
20260906163654 27 176 0.0 1.6 0.00 0.00 0.00 47 1022.5
20260906163150 26 155 0.0 0.0 0.00 0.00 0.00 50 1022.3
20260906162647 26 166 1.6 1.6 0.00 0.00 0.00 52 1022.4
20260906162146 27 81 1.6 1.6 0.00 0.00 0.00 51 1022.1
20260906161641 26 176 0.0 0.0 0.00 0.00 0.00 52 1022.1
20260906161140 25 158 0.0 0.0 0.00 0.00 0.00 53 1022.3
20260906160639 25 175 0.0 0.0 0.00 0.00 0.00 55 1022.1
20260906160138 25 168 1.6 1.6 0.00 0.00 0.00 53 1022.3
20260906155636 25 164 1.6 1.6 0.00 0.00 0.00 54 1022.3
20260906155132 26 139 0.0 0.0 0.00 0.00 0.00 54 1022.3
20260906154627 26 141 0.0 1.6 0.00 0.00 0.00 54 1022.0
20260906154126 25 156 0.0 0.0 0.00 0.00 0.00 55 1022.3
20260906153625 25 160 0.0 0.0 0.00 0.00 0.00 57 1022.4
20260906153120 25 160 0.0 1.6 0.00 0.00 0.00 55 1022.3
20260906152615 25 155 0.0 0.0 0.00 0.00 0.00 55 1022.4
20260906152115 24 158 0.0 0.0 0.00 0.00 0.00 58 1022.1
20260906151610 24 174 1.6 3.2 0.00 0.00 0.00 58 1022.3
20260906151106 24 56 1.6 1.6 0.00 0.00 0.00 58 1022.4
20260906150601 24 145 0.0 1.6 0.00 0.00 0.00 60 1022.3
20260906150056 24 163 0.0 0.0 0.00 0.00 0.00 60 1022.7
20260906145554 23 141 0.0 1.6 0.00 0.00 0.00 61 1022.5
20260906145050 23 188 1.6 3.2 0.00 0.00 0.00 63 1022.4
20260906144544 22 132 0.0 0.0 0.00 0.00 0.00 65 1022.3
20260906144039 22 142 0.0 0.0 0.00 0.00 0.00 65 1022.4
20260906143534 22 116 1.6 1.6 0.00 0.00 0.00 66 1022.4
20260906143032 21 162 0.0 0.0 0.00 0.00 0.00 68 1022.5
20260906142530 21 126 1.6 3.2 0.00 0.00 0.00 69 1022.4
20260906142026 21 153 0.0 0.0 0.00 0.00 0.00 71 1022.4
20260906141525 21 148 1.6 1.6 0.00 0.00 0.00 70 1022.6
20260906141021 21 106 1.6 1.6 0.00 0.00 0.00 67 1022.5
20260906140520 21 151 0.0 0.0 0.00 0.00 0.00 68 1022.4
20260906140020 21 143 0.0 0.0 0.00 0.00 0.00 69 1022.5
20260906135517 20 168 0.0 0.0 0.00 0.00 0.00 69 1022.5
20260906135013 20 163 0.0 0.0 0.00 0.00 0.00 70 1022.5
20260906134508 20 166 0.0 1.6 0.00 0.00 0.00 70 1022.4
20260906134008 20 163 0.0 0.0 0.00 0.00 0.00 70 1022.3
20260906133504 19 150 0.0 0.0 0.00 0.00 0.00 71 1022.3
20260906132959 18 154 0.0 0.0 0.00 0.00 0.00 73 1022.0
20260906132454 18 154 0.0 0.0 0.00 0.00 0.00 75 1022.3
20260906131949 17 161 0.0 0.0 0.00 0.00 0.00 78 1022.0
20260906131445 16 163 0.0 1.6 0.00 0.00 0.00 82 1022.3
20260906130940 16 153 0.0 0.0 0.00 0.00 0.00 86 1022.1
20260906130439 16 157 0.0 0.0 0.00 0.00 0.00 87 1022.0
20260906125934 15 163 0.0 0.0 0.00 0.00 0.00 89 1022.1
20260906125432 15 160 0.0 0.0 0.00 0.00 0.00 89 1021.9
20260906124931 15 169 0.0 0.0 0.00 0.00 0.00 89 1022.0
20260906124428 15 170 0.0 0.0 0.00 0.00 0.00 89 1022.0
20260906123927 15 170 0.0 0.0 0.00 0.00 0.00 89 1022.0
20260906123426 16 170 0.0 0.0 0.00 0.00 0.00 89 1022.0
20260906122921 16 170 0.0 0.0 0.00 0.00 0.00 88 1022.1
20260906122421 16 170 0.0 0.0 0.00 0.00 0.00 88 1021.9
20260906121919 16 169 0.0 0.0 0.00 0.00 0.00 88 1021.9
20260906121414 16 169 0.0 0.0 0.00 0.00 0.00 87 1021.9
20260906120911 16 169 0.0 0.0 0.00 0.00 0.00 87 1021.8
20260906120406 16 169 0.0 0.0 0.00 0.00 0.00 87 1022.4
20260906115902 16 169 0.0 0.0 0.00 0.00 0.00 87 1022.3
20260906115357 16 186 0.0 0.0 0.00 0.00 0.00 87 1021.9
20260906114856 16 166 0.0 0.0 0.00 0.00 0.00 87 1021.8
20260906114352 16 138 0.0 0.0 0.00 0.00 0.00 87 1021.8
20260906113847 16 160 0.0 0.0 0.00 0.00 0.00 87 1021.9
20260906113346 16 162 0.0 0.0 0.00 0.00 0.00 86 1021.9
20260906112842 16 159 0.0 0.0 0.00 0.00 0.00 85 1022.0
20260906112338 17 160 0.0 1.6 0.00 0.00 0.00 83 1021.9
20260906111838 17 153 0.0 1.6 0.00 0.00 0.00 82 1021.7
20260906111337 17 158 0.0 0.0 0.00 0.00 0.00 80 1021.7
20260906110832 17 158 0.0 0.0 0.00 0.00 0.00 80 1021.8
20260906110328 17 156 0.0 1.6 0.00 0.00 0.00 79 1021.4
20260906105827 17 162 0.0 0.0 0.00 0.00 0.00 78 1021.6
20260906105323 17 153 0.0 0.0 0.00 0.00 0.00 78 1021.6
20260906104819 17 155 0.0 0.0 0.00 0.00 0.00 77 1021.4
20260906104317 17 163 0.0 0.0 0.00 0.00 0.00 75 1021.3
20260906103816 17 156 0.0 1.6 0.00 0.00 0.00 74 1021.4
20260906103315 17 46 1.6 1.6 0.00 0.00 0.00 73 1021.6
20260906102811 17 131 1.6 1.6 0.00 0.00 0.00 73 1021.3
20260906102309 17 153 0.0 0.0 0.00 0.00 0.00 74 1021.7
20260906101805 17 153 0.0 0.0 0.00 0.00 0.00 74 1021.4
20260906101300 18 158 0.0 0.0 0.00 0.00 0.00 71 1021.3
20260906100755 18 138 0.0 1.6 0.00 0.00 0.00 69 1021.4
20260906100254 18 96 0.0 1.6 0.00 0.00 0.00 68 1021.2
20260906095750 18 145 0.0 0.0 0.00 0.00 0.00 66 1021.2
20260906095245 18 132 0.0 1.6 0.00 0.00 0.00 65 1021.7
20260906094744 18 143 0.0 0.0 0.00 0.00 0.00 64 1021.6
20260906094239 18 152 0.0 0.0 0.00 0.00 0.00 63 1021.4
20260906093736 18 154 0.0 0.0 0.00 0.00 0.00 61 1021.4
20260906093231 18 138 0.0 0.0 0.00 0.00 0.00 60 1021.8
20260906092727 18 169 1.6 1.6 0.00 0.00 0.00 60 1021.3
20260906092226 18 156 0.0 0.0 0.00 0.00 0.00 60 1021.2
20260906091722 18 156 0.0 0.0 0.00 0.00 0.00 58 1021.3
20260906091218 18 156 0.0 0.0 0.00 0.00 0.00 57 1021.3
20260906090715 19 156 0.0 0.0 0.00 0.00 0.00 55 1021.2
20260906090213 19 156 0.0 0.0 0.00 0.00 0.00 55 1021.0
20260906085713 20 159 0.0 0.0 0.00 0.00 0.00 54 1021.0
20260906085211 20 150 0.0 0.0 0.00 0.00 0.00 52 1020.9
20260906084707 21 155 0.0 0.0 0.00 0.00 0.00 51 1021.1
20260906084207 20 163 0.0 1.6 0.00 0.00 0.00 51 1021.1
20260906083702 20 168 1.6 1.6 0.00 0.00 0.00 53 1021.1
20260906083157 20 150 0.0 1.6 0.00 0.00 0.00 53 1021.0
20260906082652 20 154 0.0 0.0 0.00 0.00 0.00 55 1021.2
20260906082147 20 147 0.0 0.0 0.00 0.00 0.00 57 1021.1
20260906081643 20 147 0.0 0.0 0.00 0.00 0.00 56 1021.0
20260906081138 20 153 0.0 1.6 0.00 0.00 0.00 55 1020.9
20260906080635 20 153 0.0 0.0 0.00 0.00 0.00 54 1020.7
20260906080131 20 153 0.0 0.0 0.00 0.00 0.00 53 1020.5
20260906075630 20 153 0.0 0.0 0.00 0.00 0.00 53 1020.7
20260906075125 20 153 0.0 0.0 0.00 0.00 0.00 53 1020.3
20260906074620 21 152 0.0 1.6 0.00 0.00 0.00 52 1020.5
20260906074119 21 180 0.0 0.0 0.00 0.00 0.00 53 1020.4
20260906073614 21 152 0.0 0.0 0.00 0.00 0.00 54 1020.3
20260906073110 21 153 0.0 0.0 0.00 0.00 0.00 55 1020.5
20260906072604 21 169 0.0 1.6 0.00 0.00 0.00 55 1020.4
20260906072101 21 111 0.0 1.6 0.00 0.00 0.00 55 1020.5
20260906071557 20 150 0.0 0.0 0.00 0.00 0.00 55 1020.5
20260906071057 20 156 0.0 0.0 0.00 0.00 0.00 55 1020.4
20260906070554 20 138 0.0 0.0 0.00 0.00 0.00 55 1020.5
20260906070049 21 168 0.0 0.0 0.00 0.00 0.00 54 1020.6
20260906065548 21 169 0.0 0.0 0.00 0.00 0.00 53 1020.5
20260906065044 21 159 0.0 0.0 0.00 0.00 0.00 52 1020.5
20260906064540 21 155 0.0 0.0 0.00 0.00 0.00 52 1020.7
20260906064034 21 153 0.0 0.0 0.00 0.00 0.00 51 1020.6
20260906063530 22 165 0.0 0.0 0.00 0.00 0.00 50 1020.5
20260906063026 22 156 0.0 0.0 0.00 0.00 0.00 50 1021.0
20260906062521 22 164 0.0 0.0 0.00 0.00 0.00 49 1020.7
20260906062015 23 172 0.0 0.0 0.00 0.00 0.00 48 1021.0
20260906061512 23 165 0.0 0.0 0.00 0.00 0.00 47 1020.9
20260906061010 23 165 1.6 3.2 0.00 0.00 0.00 47 1020.9
20260906060507 23 177 1.6 1.6 0.00 0.00 0.00 46 1020.9
20260906060004 23 172 0.0 0.0 0.00 0.00 0.00 44 1021.1
20260906055459 24 246 1.6 1.6 0.00 0.00 0.00 44 1021.1
20260906054955 23 185 8.0 11.3 0.00 0.00 0.00 44 1020.9
20260906054455 23 175 3.2 3.2 0.00 0.00 0.00 43 1021.0
20260906053950 22 150 0.0 0.0 0.00 0.00 0.00 45 1020.7
20260906053446 22 150 0.0 0.0 0.00 0.00 0.00 46 1020.9
20260906052942 23 169 0.0 0.0 0.00 0.00 0.00 44 1021.1
20260906052438 23 169 0.0 0.0 0.00 0.00 0.00 44 1021.2
20260906051934 23 169 0.0 0.0 0.00 0.00 0.00 43 1021.3
20260906051430 23 169 0.0 0.0 0.00 0.00 0.00 43 1021.2
20260906050925 23 168 0.0 0.0 0.00 0.00 0.00 43 1021.6
20260906050425 23 168 0.0 0.0 0.00 0.00 0.00 42 1021.7
20260906045924 23 169 1.6 1.6 0.00 0.00 0.00 42 1021.8
20260906045423 24 169 0.0 0.0 0.00 0.00 0.00 41 1021.9
20260906044920 24 170 0.0 0.0 0.00 0.00 0.00 41 1021.6
20260906044420 24 161 0.0 0.0 0.00 0.00 0.00 42 1021.8
20260906043915 24 167 1.6 1.6 0.00 0.00 0.00 42 1021.8
20260906043411 23 171 1.6 3.2 0.00 0.00 0.00 44 1021.6
20260906042906 22 152 0.0 0.0 0.00 0.00 0.00 43 1021.2
20260906042405 22 151 0.0 0.0 0.00 0.00 0.00 44 1021.0
20260906041901 22 151 0.0 0.0 0.00 0.00 0.00 45 1020.6
20260906041357 22 151 0.0 0.0 0.00 0.00 0.00 44 1020.6
20260906040856 22 150 0.0 0.0 0.00 0.00 0.00 43 1020.3
20260906040352 22 164 0.0 0.0 0.00 0.00 0.00 43 1020.4
20260906035847 23 164 0.0 0.0 0.00 0.00 0.00 42 1020.4
20260906035342 22 164 0.0 0.0 0.00 0.00 0.00 41 1020.4
20260906034838 22 165 0.0 0.0 0.00 0.00 0.00 42 1020.4
20260906034333 23 164 0.0 0.0 0.00 0.00 0.00 42 1020.4
20260906033829 23 165 0.0 0.0 0.00 0.00 0.00 41 1019.9
20260906033328 23 148 0.0 0.0 0.00 0.00 0.00 42 1020.0
20260906032824 23 147 0.0 0.0 0.00 0.00 0.00 41 1020.1
20260906032320 23 171 0.0 0.0 0.00 0.00 0.00 41 1020.4
20260906031815 22 171 0.0 0.0 0.00 0.00 0.00 42 1020.1
20260906031310 23 171 0.0 0.0 0.00 0.00 0.00 41 1020.0
20260906030810 23 171 0.0 0.0 0.00 0.00 0.00 40 1020.0
20260906030305 25 171 0.0 0.0 0.00 0.00 0.00 38 1019.4
20260906025805 25 172 0.0 0.0 0.00 0.00 0.00 36 1019.6
20260906025259 25 171 0.0 0.0 0.00 0.00 0.00 35 1019.4
20260906024758 25 171 0.0 0.0 0.00 0.00 0.00 35 1019.3
20260906024257 25 171 0.0 0.0 0.00 0.00 0.00 35 1018.9
20260906023753 26 171 0.0 0.0 0.00 0.00 0.00 34 1019.1
20260906023248 26 170 0.0 0.0 0.00 0.00 0.00 34 1019.0
20260906022744 26 160 0.0 0.0 0.00 0.00 0.00 33 1019.2
20260906022239 26 129 0.0 0.0 0.00 0.00 0.00 33 1019.1
20260906021735 26 42 0.0 1.6 0.00 0.00 0.00 33 1018.7
20260906021234 26 61 1.6 1.6 0.00 0.00 0.00 33 1019.0
20260906020729 26 127 0.0 1.6 0.00 0.00 0.00 33 1018.9
20260906020223 26 156 1.6 1.6 0.00 0.00 0.00 33 1018.9
20260906015723 27 163 1.6 1.6 0.00 0.00 0.00 33 1018.7
20260906015222 27 146 0.0 1.6 0.00 0.00 0.00 33 1018.9
20260906014716 27 149 0.0 0.0 0.00 0.00 0.00 33 1018.7
20260906014213 27 161 0.0 0.0 0.00 0.00 0.00 32 1018.6
20260906013708 27 152 0.0 0.0 0.00 0.00 0.00 31 1018.5
20260906013203 27 147 0.0 0.0 0.00 0.00 0.00 31 1018.7
20260906012658 28 43 1.6 1.6 0.00 0.00 0.00 30 1018.5
20260906012157 28 91 1.6 3.2 0.00 0.00 0.00 30 1018.9
20260906011653 28 144 0.0 1.6 0.00 0.00 0.00 30 1018.7
20260906011148 28 107 3.2 4.8 0.00 0.00 0.00 29 1018.5
20260906010643 29 189 0.0 1.6 0.00 0.00 0.00 29 1018.4
20260906010139 29 160 0.0 1.6 0.00 0.00 0.00 28 1018.6
20260906005639 30 65 1.6 3.2 0.00 0.00 0.00 27 1018.3
20260906005138 30 145 1.6 3.2 0.00 0.00 0.00 26 1018.5
20260906004637 30 153 0.0 1.6 0.00 0.00 0.00 26 1018.4
20260906004132 30 142 0.0 0.0 0.00 0.00 0.00 26 1018.2
20260906003627 30 162 0.0 0.0 0.00 0.00 0.00 26 1018.5
20260906003124 31 152 0.0 0.0 0.00 0.00 0.00 25 1018.6
20260906002618 31 156 0.0 0.0 0.00 0.00 0.00 25 1018.6
20260906002113 31 326 1.6 1.6 0.00 0.00 0.00 25 1018.6
20260906001609 31 23 1.6 1.6 0.00 0.00 0.00 25 1018.5
20260906001108 31 151 0.0 0.0 0.00 0.00 0.00 25 1018.4
20260906000605 32 156 0.0 0.0 0.00 0.00 0.00 24 1018.4
20260906000059 33 143 0.0 0.0 0.00 0.00 0.00 22 1018.4
20260905235559 33 180 0.0 1.6 0.00 0.00 0.00 23 1018.2
20260905235054 32 176 1.6 1.6 0.00 0.00 0.00 23 1018.4
20260905234549 31 172 0.0 0.0 0.00 0.00 0.00 23 1018.4
20260905234045 31 163 0.0 1.6 0.00 0.00 0.00 23 1018.4
20260905233544 31 163 0.0 0.0 0.00 0.00 0.00 22 1018.4
20260905233044 32 163 0.0 1.6 0.00 0.00 0.00 23 1018.3
20260905232540 32 179 1.6 1.6 0.00 0.00 0.00 23 1018.3
20260905232035 32 171 1.6 1.6 0.00 0.00 0.00 23 1018.2
20260905231530 32 170 1.6 1.6 0.00 0.00 0.00 23 1018.4
20260905231027 32 141 3.2 3.2 0.00 0.00 0.00 22 1018.4
20260905230526 33 167 0.0 1.6 0.00 0.00 0.00 23 1018.2
20260905230024 33 137 3.2 3.2 0.00 0.00 0.00 22 1018.2
20260905225519 33 160 0.0 0.0 0.00 0.00 0.00 22 1018.2
20260905225015 33 171 1.6 1.6 0.00 0.00 0.00 22 1017.9
20260905224509 33 169 0.0 0.0 0.00 0.00 0.00 22 1018.3
20260905224008 33 158 0.0 0.0 0.00 0.00 0.00 25 1018.4
20260905223506 32 156 0.0 0.0 0.00 0.00 0.00 23 1018.3
20260905223001 33 167 1.6 1.6 0.00 0.00 0.00 22 1018.2
20260905222501 33 146 0.0 0.0 0.00 0.00 0.00 23 1018.2
20260905221956 33 163 1.6 3.2 0.00 0.00 0.00 23 1018.2
20260905221453 33 140 3.2 4.8 0.00 0.00 0.00 22 1018.4
20260905220949 34 177 1.6 3.2 0.00 0.00 0.00 21 1018.3